ATLAS 5 CENTAUR DEB, 43986

Orbit data source: Space-Track

ATLAS 5 CENTAUR DEB, 43986 is space debris in HEO originally from a launch on Wed, 17 Sep 2014 UTC launched from the Air Force Eastern Test Range (AFETR). Debris objects in space refer to the collection of defunct objects orbiting the Earth. Examples of debris include non-operational satellites, rocket bodies, and fragments generated from explosions, collisions, or faulty payload assembly.

Loading next visibility...
Identifier
43986, 2014-055AR
Orbit
HEO
Country
Flag of USUS
Related business
Flag of USUnited Launch Alliance/Lockheed Martin (US)
Manufacturer
Unknown
Mission
Spacecraft
Bus & Motor
Unknown
Mass
Unknown
Launch date (UTC)
2014-09-17 (12 years ago)
Launch vehicle
Unknown
Launch site
Air Force Eastern Test Range (AFETR)
Object type
Payload
Rocket body
Debris
Shape & HBR
Unknown shape, 1.1 m
Radar Cross Section
Medium (>0.1 m² and <1 m²)

Expand to show TLE details & history
Last TLE update: 1 week ago

TLE from 1 week ago
0 ATLAS 5 CENTAUR DEB
1 43986U 14055AR  26226.70743250 -.00000102  00000-0  00000-0 0  9995
2 43986  20.0721 144.2292 4756882 165.0816 216.1545  1.84560200 53193
Epoch: 2026-08-14T16:58Z
TLE epoch observation values (Epoch: 2026-08-14T16:58:42.167Z)
Latitude
0.00005°
Longitude
-73.60457°
Altitude
33,849.457 km
Speed
2.371 km/s
True Right ascension
09h 36m 47s
True Declination
0° 00' 00"
Sunlit
Object was in daylight at epoch
Visualization orbit readout
Latitude
Unknown
Longitude
Unknown
Altitude
Unknown
Speed
Unknown
Apparent Right ascension
Unknown
Apparent Declination
Unknown
Sunlit
N/A
Visualization observer readout
Local Sidereal Time
15:53:54
Azimuth
Unknown
Elevation
Unknown
Doppler factor
Unknown
Orbital elements
Apogee altitude
35,053.685 km
Perigee altitude
8,342.583 km
Semi-major axis
28,076.271 km
Eccentricity
0.47569
Inclination
20.0721°
RAAN
144.2292°
Arg. of periapsis
165.0816°
True anomaly
194.89934°
Mean anomaly
216.1545°
Eccentric anomaly
204.74578°
Mean motion
0.46135 °/min
Orbital period
780.31 mins
BSTAR
0
Loading maneuver chart data...
Computing Atmospheric mass density...

Documentation

Showing up to 5 results
|